Regional Weather Roundup
Issued by NWS

Home | Current Version | Previous Version | Graphics & Text | Print | Product List | Glossary Off
Versions: 1 2 3 4 5 6 7 8 9 10 11 12 13 14 15 16 17 18 19 20 21 22 23 24 25 26 27 28 29 30 31 32 33 34 35 36 37 38 39 40 41 42 43 44 45 46 47 48 49 50

000
ASUS43 KDTX 030301
RWRMI
MICHIGAN HOURLY REGIONAL WEATHER ROUNDUP
NATIONAL WEATHER SERVICE DETROIT/PONTIAC MI
1100 PM EDT WED SEP 02 2015

NOTE: "FAIR" INDICATES FEW OR NO CLOUDS BELOW 12,000 FEET WITH NO
SIGNIFICANT WEATHER AND/OR OBSTRUCTION TO VISIBILITY.

MIZ047>049-052>055-059>063-066>070-074>076-081>083-030400-
SOUTHEAST LOWER MICHIGAN

CITY           SKY/WX    TMP DP  RH WIND       PRES   REMARKS
ADRIAN         CLEAR     73  68  84 CALM      30.01S
ALMA           PTCLDY    74  69  87 CALM      30.00F
ANN ARBOR      CLEAR     70  67  90 SW3       30.00S
BAD AXE        CLOUDY    69  67  93 SE5       29.96F
CARO           MOCLDY    66  64  94 CALM      29.98F
DETROIT CITY   MOCLDY    77  66  68 CALM      29.98S
DETROIT        PTCLDY    76  67  73 S6        29.99S
FLINT          CLEAR     75  66  73 CALM      30.00S
GROSSE ILE     CLEAR     73  70  88 CALM      29.97F
HILLSDALE      PTCLDY    70  70 100 CALM      30.03S FOG
HOWELL         CLEAR     73  68  85 W6        30.00S

CITY           SKY/WX    TMP DP  RH WIND       PRES   REMARKS
JACKSON        PTCLDY    72  69  90 CALM      30.01S
LAMBERTVILLE   CLEAR     72  69  90 CALM      30.00F FOG
LANSING        CLEAR     74  69  85 CALM      30.01S
LAPEER         FAIR      67  67  99 CALM      30.00S FOG
MASON          PTCLDY    71  67  90 CALM      30.00S FOG
MONROE         CLOUDY    74  70  88 CALM      29.98F
MT. CLEMENS    MOCLDY    73  68  84 VRB3      29.96S
PONTIAC        PTCLDY    72  69  90 N5        30.00R
PORT HOPE        N/A     71  70  96 CALM      29.94F
PORT HURON     CLOUDY    73  68  83 SE6       29.96F
TRI CITIES     PTCLDY    69  65  86 SE5       29.99F
MIDLAND        FAIR      69  68  96 SW3       29.97F
TROY           PTCLDY    77  67  70 N6        30.01R
SAGINAW HB     PTCLDY    68  64  88 CALM      29.97F
$$
MIZ043>046-050>051-056>058-064>065-071>073-077>080-030400-
SOUTHWEST LOWER MICHIGAN

CITY           SKY/WX    TMP DP  RH WIND       PRES   REMARKS
BATTLE CREEK   PTCLDY    73  69  87 CALM      30.02S
BENTON HARBOR  PTCLDY    73  69  87 CALM      29.99R
BIG RAPIDS     MOCLDY    71  69  93 W3        29.99R
COLDWATER      PTCLDY    70  70  98 CALM      30.02R
FREMONT        FAIR      72  72  99 CALM      29.98R
HOLLAND        MOCLDY    75  70  84 SE3       29.99R
GRAND RAPIDS   MOCLDY    74  70  87 SE5       29.99S
IONIA          FAIR      73  70  91 SW3       29.99S
KALAMAZOO      PTCLDY    74  69  85 CALM      30.00S
LUDINGTON      MOCLDY    76  73  88 CALM      29.97S
MARSHALL       PTCLDY    71  70  97 CALM      30.01S FOG
MOUNT PLEASANT MOCLDY    74  67  78 CALM      29.98F
MUSKEGON       MOCLDY    75  69  81 S5        29.98R
SOUTH HAVEN    MOCLDY    76  71  85 CALM      29.99R
$$
MIZ016>042-030400-
NORTHERN LOWER MICHIGAN

CITY           SKY/WX    TMP DP  RH WIND       PRES   REMARKS
ALPENA         CLOUDY    67  65  93 W5        29.99S
BEAVER ISLAND  CLOUDY    70  68  95 CALM      29.96S FOG
BELLAIRE       CLOUDY    69  67  92 CALM      29.97R
CADILLAC       MOCLDY    68  65  90 CALM      30.00R
CHARLEVOIX     CLOUDY    71  70  98 CALM      29.99S FOG
FRANKFORT      MOCLDY    70  68  94 CALM      29.97R FOG
GAYLORD        MOCLDY    67  66  97 NE5       30.00R
GRAYLING       MOCLDY    65  63  93 CALM      30.00S
HARBOR SPRINGS CLOUDY    71  69  96 CALM      29.96S FOG
HOUGHTON LAKE  FOG       65  65 100 CALM      30.00S VSB 1/2
MANISTEE       PTCLDY    73  68  83 NE3       29.98R
OSCODA         CLOUDY    71  70  98 CALM      29.97S FOG
PELLSTON       CLOUDY    71  69  93 CALM      29.97R
ROGERS CITY    CLOUDY    68  65  90 CALM      29.97F
TRAVERSE CITY  CLOUDY    73  68  84 CALM      29.96R
$$
MIZ007>008-015-030400-
EASTERN UPPER MICHIGAN

CITY           SKY/WX    TMP DP  RH WIND       PRES   REMARKS
KINROSS        CLOUDY    66  64  94 NE7       29.97F
MACKINAC ISLAN CLOUDY    69  66  90 NE7       29.95F
NEWBERRY       CLOUDY    67  66  97 CALM      29.97S
S. S. MARIE    CLOUDY    65  62  90 CALM      29.97F
MUNISING         N/A     66  64  93 E3        29.96S
$$
MIZ004>006-011>014-085-030400-
CENTRAL UPPER MICHIGAN

CITY           SKY/WX    TMP DP  RH WIND       PRES   REMARKS
MANISTIQUE     CLOUDY    69  67  94 CALM      29.95S
ESCANABA       CLOUDY    70  70 100 NW7       29.94R
MENOMINEE      MOCLDY    66  63  88 SE8       29.92F
SAWYER-GWINN   CLOUDY    67  65  94 NE6       29.99S
$$
MIZ001>003-009>011-084-030400-
WESTERN UPPER MICHIGAN

CITY           SKY/WX    TMP DP  RH WIND       PRES   REMARKS
IRON MOUNTAIN  RAIN      67  65  93 N5        29.96S FOG
HOUGHTON       FOG       64  63  96 E5        29.98S VSB 1/4
COPPER HARBOR    N/A     64  62  93 VRB5      29.98R
IRONWOOD       CLOUDY    63  61  94 CALM      29.95S VSB<1/4
$$

ABBREVIATIONS USED IN REMARKS
   TC - TEMPERATURE IN CELSIUS
  WCI - WIND CHILL INDEX
   HX - HEAT INDEX
  VSB - VISIBILITY



USA.gov is the U.S. government's official web portal to all federal, state and local government web resources and services.